Location: General Nathan Twining Observatory
(34.5931°N, 106.8201°W)
Time: 16:49:17
(UTC-07:00)

ADEOS II - Visible Passes

Search period start: 18 December 2014 00:00
Search period end: 28 December 2014 00:00
Orbit: 800 x 803 km, 98.3° (Epoch: 18 December)

Date Brightness Start Highest point End Pass type
(mag) Time Alt. Az. Time Alt. Az. Time Alt. Az.
18 Dec 3.2 05:30:28 10° NNE 05:35:31 46° E 05:40:32 10° S visible
18 Dec 5.0 18:28:13 10° SW 18:31:30 17° W 18:34:48 10° NW visible
19 Dec 4.3 05:05:01 10° NE 05:09:20 26° E 05:13:37 10° SSE visible
19 Dec 4.2 18:00:40 10° SSW 18:05:14 30° W 18:09:50 10° NW visible
20 Dec 5.1 04:40:25 10° ENE 04:43:02 14° E 04:45:39 10° ESE visible
20 Dec 2.1 06:17:57 10° N 06:23:06 58° WNW 06:28:14 10° SSW visible
20 Dec 3.0 17:33:56 10° S 17:39:04 56° W 17:44:14 10° NNW visible
21 Dec 2.2 05:51:49 10° NNE 05:57:05 78° ESE 06:02:19 10° S visible
22 Dec 3.4 05:25:59 10° NNE 05:30:58 42° E 05:35:54 10° S visible
22 Dec 5.0 18:23:22 10° SW 18:26:55 18° W 18:30:29 10° NW visible
23 Dec 4.4 05:00:36 10° NE 05:04:45 23° E 05:08:52 10° SSE visible
23 Dec 2.7 06:39:47 10° N 06:44:31 35° WNW 06:49:14 10° SW visible
23 Dec 4.0 17:55:58 10° SSW 18:00:40 33° W 18:05:23 10° NNW visible
24 Dec 5.2 04:36:17 10° ENE 04:38:27 12° E 04:40:36 10° ESE visible
24 Dec 2.1 06:13:22 10° N 06:18:34 64° WNW 06:23:44 10° SSW visible
24 Dec 2.8 17:29:20 10° S 17:34:30 61° W 17:39:43 10° NNW visible
25 Dec 2.4 05:47:16 10° NNE 05:52:31 71° ESE 05:57:45 10° S visible
25 Dec 5.5 18:47:52 10° W 18:48:39 10° W 18:49:26 10° W visible
26 Dec 3.5 05:21:30 10° NNE 05:26:23 39° E 05:31:15 10° SSE visible
26 Dec 4.9 18:18:32 10° SW 18:22:19 20° W 18:26:07 10° NW visible
27 Dec 4.5 04:56:12 10° NE 05:00:09 21° E 05:04:05 10° SE visible
27 Dec 2.5 06:35:08 10° N 06:39:58 39° WNW 06:44:47 10° SW visible
27 Dec 3.8 17:51:17 10° SSW 17:56:04 36° W 18:00:54 10° NNW visible
